Regional Weather Roundup
Issued by NWS Mt. Holly, NJ

Home | Current Version | Previous Version | Text Only | Print | Product List | Glossary On
Versions: 1 2 3 4 5 6 7 8 9 10 11 12 13 14 15 16 17 18 19 20 21 22 23 24 25 26 27 28 29 30 31 32 33 34 35 36 37 38 39 40 41 42 43 44 45 46 47 48 49 50
000
ASUS41 KPHI 030811
RWRPHI

REGIONAL WEATHER ROUNDUP
NATIONAL WEATHER SERVICE MOUNT HOLLY NJ
400 AM EDT SUN MAY 03 2015

NOTE:  "FAIR" INDICATES FEW OR NO CLOUDS BELOW 12,000 FEET WITH NO
SIGNIFICANT WEATHER AND/OR OBSTRUCTIONS TO VISIBILITY.

 * = STATION DOES NOT REPORT PRECIPITATION (E.G. RAIN, SNOW, ETC.)
        OR FOG.

NJZ015>026-030900-
SOUTHERN NEW JERSEY

CITY           SKY/WX    TMP DP  RH WIND       PRES   REMARKS
POMONA         CLOUDY    50  40  68 S7        30.04S
RIO GRANDE*    CLEAR     50  37  62 S5        30.01S
MILLVILLE      MOCLDY    50  46  86 CALM      30.03S
WRIGHTSTOWN    CLOUDY    44  41  89 CALM      30.03R
MOUNT HOLLY    CLOUDY    46  41  82 CALM      30.05R
TRENTON        MOCLDY    47  38  71 CALM      30.04S

$$
NJZ001>014-030900-
NORTHERN NEW JERSEY

CITY           SKY/WX    TMP DP  RH WIND       PRES   REMARKS
SUSSEX         PTCLDY    45  41  86 CALM      30.05R
ANDOVER*         N/A     45  42  89 SW3       30.04R
MORRISTOWN     CLEAR     41  39  93 CALM      30.05R FOG
NEWARK         PTCLDY    50  38  63 CALM      30.05R
TETERBORO      CLEAR     48  38  68 CALM      30.04R
CALDWELL       CLEAR     43  39  86 CALM      30.05R
SOMERVILLE     PTCLDY    43  39  86 CALM      30.04R
ALLAIRE*       CLOUDY    46  36  66 SW3       30.04F
TOMS RIVER*    CLOUDY    37  36  93 N3        30.06R

$$
PAZ043-044-047-054-055-060>062-066>071-030900-
EASTERN PENNSYLVANIA

CITY           SKY/WX    TMP DP  RH WIND       PRES   REMARKS
PHILADELPHIA   MOCLDY    51  44  77 E5        30.05R
NORTH PHILA    CLOUDY    51  39  63 SE5       30.06S
BLUE BELL      PTCLDY    50  46  87 CALM      30.03S
DOYLESTOWN     MOCLDY    45  32  60 CALM      30.04R
QUAKERTOWN*    PTCLDY    48  45  87 CALM      30.05R
POTTSTOWN      CLOUDY    50  46  86 CALM      30.05S
LANCASTER      PTCLDY    50  45  83 CALM      30.03R
COATESVILLE    PTCLDY    48  48 100 NE3       30.04R
READING        MOCLDY    51  42  71 NW3       30.03R
ALLENTOWN      CLEAR     45  42  89 NE6       30.04R
MOUNT POCONO   CLEAR     40  31  70 CALM      30.04S
HAZLETON       CLEAR     45  32  61 CALM      30.07R
WILKES BARRE   CLEAR     49  31  49 E7        30.03S

$$
DEZALL-MDZ008-012-015-019-020-030900-
DELAWARE AND EASTERN MARYLAND

CITY           SKY/WX    TMP DP  RH WIND       PRES   REMARKS
WILMINGTON     CLOUDY    52  48  86 E3        30.03S
DOVER          MOCLDY    48  48 100 S3        29.99S
GEORGETOWN     CLEAR     46  43  89 SW6       30.04S
EASTON         PTCLDY    54  54 100 CALM      30.06S
PATUXENT       CLEAR     54  48  80 W5        30.03S
OCEAN CITY     CLEAR     51  47  86 VRB5      30.05S
WALLOPS ISLAND FAIR      49  47  93 SW5       30.05S
CAMBRIDGE      CLEAR     54  52  94 S3        30.03S
SALISBURY      CLEAR     44  42  93 CALM      30.04S

$$
PAZ001-021-NYZ056-072-MDZ011-DCZ001-030900-
OTHER NEARBY LOCATIONS

CITY           SKY/WX    TMP DP  RH WIND       PRES   REMARKS
HARRISBURG     PTCLDY    49  44  83 NW7       30.03R
STATE COLLEGE  PTCLDY    51  30  44 CALM      30.05S
WILLIAMSPORT   PTCLDY    47  37  68 NW3       30.05R
BINGHAMTON     CLEAR     49  34  56 W7        30.03R
NEW YORK CITY  CLEAR     52  34  50 W5        30.07R
BALTIMORE      MOCLDY    52  44  74 CALM      30.01S
WASHINGTON DC  MOCLDY    57  50  77 S6        30.04S

$$


USA.gov is the U.S. government's official web portal to all federal, state and local government web resources and services.